Location: Newark
(42.7133°N, 87.7910°W)
Time: 02:02:41
(UTC+00:00)

Vanguard 1 - Pass Details

Date: 20 September 2019
Orbit: 653 x 3830 km, 34.3° (Epoch: 14 October)

Event Time Altitude Azimuth Distance (km) Brightness Sun altitude
Rises 13:53:20 0° 281° (W) 7,168 13.9 23.8°
Reaches altitude 10° 13:59:25 10° 273° (W) 5,653 13.5 24.8°
Maximum altitude 14:11:54 31° 220° (SW) 2,995 12.6 26.9°
Drops below altitude 10° 14:19:36 10° 161° (SSE) 3,427 13.6 28.2°
Sets 14:22:18 0° 150° (SSE) 4,070 14.1 28.6°
